Location: Newark
(53.3333°N, 83.7500°E)
Time: 23:39:07
(UTC+00:00)

N. Korean satellite - Pass Details

Date: 30 September 2020
Orbit: 452 x 505 km, 97.2° (Epoch: 29 October)

Event Time Altitude Azimuth Distance (km) Brightness Sun altitude
Rises 23:30:17 0° 20° (NNE) 2,590 10.7 -9.2°
Reaches altitude 10° 23:32:33 10° 31° (NNE) 1,693 9.9 -8.9°
Maximum altitude 23:35:50 31° 96° (E) 875 8.8 -8.4°
Drops below altitude 10° 23:39:02 10° 160° (SSE) 1,651 9.5 -7.9°
Sets 23:41:13 0° 171° (S) 2,514 10.3 -7.6°
